2025-007D

Last updated on Tue Jan 14 2025 00:02:05 GMT+0000 (Coordinated Universal Time)

1 62578U 25007D 25013.45808752 -.00000210 00000+0 00000+0 0 9994 2 62578 54.9857 126.8736 0011965 295.4748 154.0177 14.75558154 46
UTC large
Height (km)
Speed (km/s)
/
Latitude / Longitude
Inclination (degrees)
Orbital Period (minutes)
Azimuth
Elevation
Range (km)
Doppler Factor

Next 0 passes for location: London (51.5072 / 0.1276)

Sorry there are no passes over London.